Weather History for KSTS - March, 2012

Change the Weather History Date:

Thursday, March 15, 2012

  Actual Average Record
Temperature  
Mean Temperature 57 °F 53 °F  
Max Temperature 60 °F 64 °F 80 °F (2014)
Min Temperature 53 °F 42 °F 33 °F (2002)
Degree Days  
Heating Degree Days 8    
Month to date heating degree days 196  
Since 1 July heating degree days 2272  
Cooling Degree Days 0    
Month to date cooling degree days 0  
Year to date cooling degree days 0  
Growing Degree Days 6 (Base 50)    
Moisture  
Dew Point 52 °F    
Average Humidity 83    
Maximum Humidity 93    
Minimum Humidity 72    
Precipitation  
Precipitation 0.12 in 0.15 in 1.36 in (2011)
Month to date precipitation 3.19 2.93  
Year to date precipitation 12.04 16.38  
Since 1 July precipitation 16.50  
Sea Level Pressure  
Sea Level Pressure 30.07 in    
Wind  
Wind Speed 5 mph (South)    
Max Wind Speed 12 mph    
Max Gust Speed 16 mph    
Visibility 6 miles    
Events Rain    
T = Trace of Precipitation, MM = Missing Value Source: NWS Daily Summary

Daily Weather History Graph

Daily Weather History Graph

Search for Another Location

Airport or City:

Trip Planner

Search our weather history database for the weather conditions in past years. The results will help you decide how hot, cold, wet, or windy it might be!

Date:

Astronomy

Mar. 15, 2012 Rise Set
Actual Time 7:21 AM PDT 7:18 PM PDT
Civil Twilight 6:55 AM PDT 7:45 PM PDT
Nautical Twilight 6:24 AM PDT 8:16 PM PDT
Astronomical Twilight 5:53 AM PDT 8:47 PM PDT
Moon 2:50 AM PDT (3/15) 12:46 PM PDT (3/15)
Length of Visible Light 12h 50m
Length of Day
11h 57m
Last Quarter, 42% of the Moon is Illuminated
Mar 15
Last Quarter
Mar 22
New
Mar 30
First Quarter
Apr 6
Full
Apr 13
Last Quarter

Hourly Weather History & Observations

Time (PDT) Temp. Dew Point Humidity Pressure Visibility Wind Dir Wind Speed Gust Speed Precip Events Conditions
12:53 AM 54.0 °F 52.0 °F 93% 30.09 in 9.0 mi South 4.6 mph - N/A   Overcast
1:53 AM 54.0 °F 52.0 °F 93% 30.09 in 2.5 mi South 3.5 mph - N/A   Overcast
2:01 AM 53.6 °F 51.8 °F 94% 30.11 in 4.0 mi South 3.5 mph - N/A   Overcast
2:23 AM 53.6 °F 53.6 °F 100% 30.11 in 2.5 mi Calm Calm - N/A   Overcast
2:53 AM 54.0 °F 52.0 °F 93% 30.09 in 3.0 mi Calm Calm - 0.01 in Rain Light Rain
3:01 AM 53.6 °F 51.8 °F 94% 30.10 in 2.5 mi Calm Calm - 0.00 in Rain Light Rain
3:34 AM 53.6 °F 51.8 °F 94% 30.09 in 3.0 mi Calm Calm - 0.01 in   Overcast
3:53 AM 53.1 °F 52.0 °F 96% 30.07 in 3.0 mi SE 4.6 mph - 0.02 in   Overcast
4:53 AM 54.0 °F 52.0 °F 93% 30.06 in 4.0 mi SE 4.6 mph - N/A   Overcast
5:34 AM 53.6 °F 53.6 °F 100% 30.07 in 2.0 mi SSE 4.6 mph - 0.00 in Rain Light Rain
5:53 AM 54.0 °F 53.1 °F 97% 30.07 in 2.0 mi South 3.5 mph - 0.01 in Rain Light Rain
6:20 AM 53.6 °F 53.6 °F 100% 30.09 in 3.0 mi South 3.5 mph - 0.01 in Rain Light Rain
6:53 AM 54.0 °F 53.1 °F 97% 30.07 in 4.0 mi SSE 5.8 mph - 0.01 in   Overcast
7:53 AM 54.0 °F 53.1 °F 97% 30.09 in 1.0 mi South 4.6 mph - 0.02 in Rain Light Rain
8:06 AM 53.6 °F 53.6 °F 100% 30.11 in 1.0 mi South 3.5 mph - 0.00 in Rain Light Rain
8:14 AM 53.6 °F 53.6 °F 100% 30.11 in 1.0 mi South 4.6 mph - 0.01 in Rain Light Rain
8:53 AM 54.0 °F 53.1 °F 97% 30.10 in 1.0 mi SSE 4.6 mph - 0.01 in   Overcast
9:43 AM 55.4 °F 53.6 °F 94% 30.13 in 5.0 mi Calm Calm - N/A   Overcast
9:53 AM 55.0 °F 53.1 °F 93% 30.12 in 5.0 mi WSW 4.6 mph - N/A   Overcast
10:53 AM 57.0 °F 53.1 °F 87% 30.10 in 10.0 mi South 5.8 mph - N/A   Overcast
11:23 AM 57.2 °F 53.6 °F 88% 30.11 in 10.0 mi South 6.9 mph - N/A   Overcast
11:53 AM 57.9 °F 53.1 °F 84% 30.08 in 10.0 mi SSW 6.9 mph - N/A   Overcast
12:50 PM 60.8 °F 51.8 °F 72% 30.09 in 10.0 mi SW 4.6 mph - N/A   Overcast
12:53 PM 59.0 °F 51.1 °F 75% 30.08 in 10.0 mi West 3.5 mph - N/A   Overcast
1:53 PM 60.1 °F 52.0 °F 75% 30.08 in 10.0 mi SW 6.9 mph - N/A   Overcast
2:53 PM 59.0 °F 51.1 °F 75% 30.07 in 10.0 mi SW 8.1 mph - N/A   Overcast
3:53 PM 57.9 °F 51.1 °F 78% 30.06 in 6.0 mi SSW 5.8 mph - N/A   Haze
4:53 PM 57.0 °F 52.0 °F 83% 30.06 in 6.0 mi SW 10.4 mph 16.1 mph 0.00 in Rain Light Rain
5:03 PM 57.2 °F 53.6 °F 88% 30.07 in 10.0 mi SSW 6.9 mph - 0.00 in   Overcast
5:53 PM 57.0 °F 51.1 °F 81% 30.05 in 10.0 mi Variable 5.8 mph - 0.00 in   Overcast
6:53 PM 55.9 °F 51.1 °F 84% 30.03 in 10.0 mi SSW 4.6 mph - N/A   Overcast
7:53 PM 55.9 °F 52.0 °F 87% 30.03 in 10.0 mi SSW 3.5 mph - N/A   Overcast
8:00 PM 55.4 °F 51.8 °F 88% 30.04 in 10.0 mi South 5.8 mph - N/A   Overcast
8:18 PM 55.4 °F 51.8 °F 88% 30.03 in 10.0 mi South 6.9 mph - N/A   Overcast
8:30 PM 55.4 °F 51.8 °F 88% 30.03 in 10.0 mi South 8.1 mph - N/A   Overcast
8:53 PM 55.0 °F 51.1 °F 86% 30.02 in 10.0 mi South 6.9 mph - N/A   Overcast
9:11 PM 55.4 °F 51.8 °F 88% 30.03 in 10.0 mi South 6.9 mph - N/A   Overcast
9:53 PM 54.0 °F 52.0 °F 93% 30.02 in 7.0 mi South 5.8 mph - N/A   Overcast
10:53 PM 54.0 °F 52.0 °F 93% 30.02 in 6.0 mi South 6.9 mph - 0.01 in   Overcast
11:53 PM 54.0 °F 52.0 °F 93% 30.02 in 3.0 mi South 6.9 mph - 0.00 in Rain Light Rain